Regional Weather Roundup
Issued by NWS

Home | Current Version | Previous Version | Text Only | Print | Product List | Glossary Off
Versions: 1 2 3 4 5 6 7 8 9 10 11 12 13 14 15 16 17 18 19 20 21 22 23 24 25 26 27 28 29 30 31 32 33 34 35 36 37 38 39 40 41 42 43 44 45 46 47 48 49 50

000
ASUS43 KFSD 191502
RWRSD

WEATHER ROUNDUP FOR SOUTH DAKOTA
NATIONAL WEATHER SERVICE SIOUX FALLS SD
1000 AM CDT SAT AUG 19 2017

NOTE: "FAIR" INDICATES FEW OR NO CLOUDS BELOW 12,000 FEET WITH NO
SIGNIFICANT WEATHER AND/OR OBSTRUCTIONS TO VISIBILITY.


SDZ001>005-009-010-012>017-191600-
NORTHWEST AND NORTH CENTRAL SOUTH DAKOTA

CITY           SKY/WX    TMP DP  RH WIND       PRES   REMARKS
BUFFALO          N/A     68  48  48 CALM      29.80S
FAITH            N/A     72  56  57 S13       29.83S
MOBRIDGE       SUNNY     70  61  73 S14       29.82F
$$

SDZ012>016-024>037-041>051-057-063-072>074-191600-
SOUTHWEST AND SOUTH CENTRAL SOUTH DAKOTA

CITY           SKY/WX    TMP DP  RH WIND       PRES   REMARKS
RAPID CTY ARPT SUNNY     75  53  46 SW3       29.88S
PIERRE         SUNNY     74  56  53 S20       29.83F
CUSTER         SUNNY     77  45  32 W3        30.05S
ELLSWORTH AFB  SUNNY     74  52  46 CALM      29.87F
PHILIP         SUNNY     79  55  43 SW9       29.84F
PINE RIDGE     SUNNY     74  57  55 SW12      29.91S
SPEARFISH      FAIR      81  46  30 W7        29.92S
WINNER         FAIR      75  60  59 S15G22    29.89F
$$

SDZ004>011-016>023-039-040-191600-
NORTHEAST SOUTH DAKOTA

CITY           SKY/WX    TMP DP  RH WIND       PRES   REMARKS
ABERDEEN       SUNNY     66  61  84 S10       29.90F
WATERTOWN      SUNNY     66  62  87 S8        29.95S
BROOKINGS      SUNNY     64  61  90 S6        29.97F
SISSETON         N/A     74  63  68 SW6       29.90S
$$

SDZ017-020-022-023-036>040-048>070-191600-
SOUTHEAST SOUTH DAKOTA

CITY           SKY/WX    TMP DP  RH WIND       PRES   REMARKS
SIOUX FALLS    FOG       63  62  97 E5        29.98S VSB 1/2
HURON          SUNNY     68  61  78 MISG      29.92F
CHAMBERLAIN    SUNNY     73  60  64 SE14      29.91F
MITCHELL       SUNNY     68  62  81 SE9       29.94F
YANKTON        SUNNY     66  61  84 SE7       29.96F
$$

ABBREVIATIONS USED IN REMARKS
   TC - TEMPERATURE IN CELSIUS
  WCI - WIND CHILL INDEX
   HX - HEAT INDEX
  VSB - VISIBILITY





USA.gov is the U.S. government's official web portal to all federal, state and local government web resources and services.